Regional Weather Roundup
Issued by NWS

Home | Current Version | Previous Version | Text Only | Print | Product List | Glossary Off
Versions: 1 2 3 4 5 6 7 8 9 10 11 12 13 14 15 16 17 18 19 20 21 22 23 24 25 26 27 28 29 30 31 32 33 34 35 36 37 38 39 40 41 42 43 44 45 46 47 48 49 50

000
ASUS45 KABQ 211710
RWRNM
WEATHER ROUNDUP FOR NEW MEXICO
NATIONAL WEATHER SERVICE ALBUQUERQUE NM
1000 AM MST SUN DEC 21 2014

NOTE: "FAIR" MEANS FEW OR NO CLOUDS BELOW 12,000 FEET AGL WITH NO
       SIGNIFICANT WEATHER OR OBSTRUCTIONS TO VISION.

      THIS PRODUCT IS RELEASED AS TWO VERSIONS.  ONE VERSION NEAR
      THE TOP OF THE HOUR CONTAINING PRELIMINARY DATA FROM ALBUQUERQUE
      AND OTHER STATIONS.  A FINAL VERSION WITH ADDITIONAL DATA IS
      ISSUED ABOUT 10 MINUTES AFTER THE HOUR.

NMZ501-503-504-510>518-211800-
NORTHWEST PLATEAU/NORTHCENTRAL MOUNTAINS

CITY           SKY/WX    TMP DP  RH WIND       PRES   REMARKS
FARMINGTON     SUNNY     33  29  85 CALM      30.05F
LOS ALAMOS     SUNNY     32  24  74 CALM      30.02S
SANTA FE       SUNNY     39  24  55 N18       30.00S WCI  30
TAOS           SUNNY     34  23  64 SW10      30.01F WCI  26
ANGEL FIRE     FAIR      29  21  73 W10G17    29.96F WCI  19

$$
NMZ402-403-502-505>509-211800-
WESTCENTRAL MOUNTAINS/SOUTHWEST MOUNTAINS

CITY           SKY/WX    TMP DP  RH WIND       PRES   REMARKS
GALLUP         PTSUNNY   35  28  75 VRB3      30.10F
GRANTS         PTSUNNY   38  26  59 NW12G20   30.10S WCI  31
SILVER CITY    SUNNY     46  28  49 NW16      30.11S

$$
NMZ407-409-411-412-211800-
SOUTHERN DESERTS

CITY           SKY/WX    TMP DP  RH WIND       PRES   REMARKS
LORDSBURG      FAIR      41  34  75 W6        30.12S
DEMING         SUNNY     46  32  58 SW13      30.08S
LAS CRUCES     SUNNY     45  32  60 W6        30.08S
HOLLOMAN AFB   MOSUNNY   43  31  60 S7        30.04F
ALAMOGORDO     MOSUNNY   45  30  57 S9        30.05F
T OR C         PTSUNNY   42  26  53 S7        30.04S

$$
NMZ519>523-211800-
CENTRAL VALLEYS/CENTRAL HIGHLANDS

CITY           SKY/WX    TMP DP  RH WIND       PRES   REMARKS
ALBUQUERQUE    PTSUNNY   37  28  70 W5        30.06S WCI  33
DOUBLE EAGLE   PTSUNNY   36  27  69 NW8       30.06R WCI  29
MORIARTY ARPT  FAIR      45  24  44 NW37G43   29.96R
CLINES CORNERS SUNNY     37  25  61 NW31G40   29.90S WCI  24
BELEN          FAIR      40  28  64 N5        30.07S
SOCORRO        FAIR      37  25  63 SE5       30.06R WCI  33

$$
NMZ524>526-539-540-211800-
SOUTHCENTRAL MOUNTAINS

CITY           SKY/WX    TMP DP  RH WIND       PRES   REMARKS
RUIDOSO        MOSUNNY   45  23  42 NW26G40   30.00S

$$
NMZ527>531-211800-
NORTHEAST HIGHLANDS/NORTHEAST PLAINS

CITY           SKY/WX    TMP DP  RH WIND       PRES   REMARKS
LAS VEGAS      MOSUNNY   42  20  41 N5        29.87F
RATON          SUNNY     37  19  48 NE3       29.80F
CLAYTON        PTSUNNY   50  23  34 W9        29.77F

$$
NMZ532>537-211800-
EASTCENTRAL PLAINS

CITY           SKY/WX    TMP DP  RH WIND       PRES   REMARKS
TUCUMCARI      PTSUNNY   50  24  36 W13       29.82F
CANNON AFB     NOT AVBL
CLOVIS AIRPORT SUNNY     52  27  37 W18       29.85F

$$
NMZ028-029-538-211800-
SOUTHEAST PLAINS

CITY           SKY/WX    TMP DP  RH WIND       PRES   REMARKS
ROSWELL        MOSUNNY   53  26  35 S5        29.93F
ARTESIA        SUNNY     59  27  29 SW13      29.92F
CARLSBAD       SUNNY     56  27  32 SE10      29.94
HOBBS          SUNNY     55  27  33 SW14      29.94F


$$


USA.gov is the U.S. government's official web portal to all federal, state and local government web resources and services.